{"data":{"norad_id":60293,"epoch":"2026-09-21T03:44:41.730720Z","epoch_age_seconds":124732,"freshness":"FRESH","line1":"1 60293U 24132R   26264.15603855 -.00001417  00000+0 -31757-4 0  9996","line2":"2 60293  53.1612 222.6327 0001061  80.7422 279.3700 15.33546883121519","mean_motion":15.33546883,"eccentricity":0.0001061,"inclination_deg":53.1612,"raan_deg":222.6327,"arg_perigee_deg":80.7422,"mean_anomaly_deg":279.37,"bstar":-3.1757e-5,"rev_number":12151,"period_min":93.899965887121,"perigee_km":464.51397682752,"apogee_km":465.96614143947,"semimajor_km":6843.3770591335,"source":"CELESTRAK","updated_at":"2026-09-22T09:00:49.194527Z"}}